Location: Newark
(54.3386°S, 169.8415°W)
Time: 07:06:51
(UTC+00:00)

Transit 2A Rocket - Pass Details

Date: 01 November 2019
Orbit: 594 x 909 km, 66.7° (Epoch: 14 November)

Event Time Altitude Azimuth Distance (km) Brightness Sun altitude
Rises 09:32:48 0° 223° (SW) 3,552 9.8 -18.6°
Reaches altitude 10° 09:35:20 10° 224° (SW) 2,621 8.8 -18.8°
Maximum altitude 09:41:28 72° 306° (NW) 966 5.4 -19.1°
Enters shadow 09:44:13 34° 22° (NNE) 1,453 5.9 -19.2°
Drops below altitude 10° 09:47:29 10° 29° (NNE) 2,563 - -19.4°
Sets 09:49:56 0° 31° (NNE) 3,468 - -19.5°
